Location: Unspecified
(0.0000°N, 0.0000°E)
Time: 17:19:30
(UTC+00:00)

STARLINK 1042 - Pass Details

Date: 22 January 2020
Orbit: 549 x 551 km, 53.0° (Epoch: 23 January)

Event Time Altitude Azimuth Distance (km) Brightness Sun altitude
Rises 04:44:55 0° 212° (SSW) 2,721 7.1 -20.3°
Reaches altitude 10° 04:47:10 10° 210° (SSW) 1,824 6.2 -19.8°
Maximum altitude 04:51:18 77° 124° (SE) 566 3.7 -18.8°
Drops below altitude 10° 04:55:25 10° 38° (NE) 1,812 6.5 -17.8°
Sets 04:57:38 0° 36° (NE) 2,702 7.4 -17.3°
